一网星座-0196星 (ONEWEB-0196 )

导读

ONEWEB-0196是英国OneWeb星座下的一颗低轨互联网通信卫星,于2021年4月25日发射。OneWeb星座由数百颗约125公斤微卫星组成,每颗卫星采用高通量Ku波段载荷,可提供至少8Gbps吞吐量,为全球家庭、移动平台提供互联网接入服务。ONEWEB-0196的入轨进一步完善了OneWeb低轨星座的全球覆盖能力,推动了全球宽带互联网基础设施建设,助力缩小数字鸿沟。

基本信息
目录编号:
48218
目录名称:
ONEWEB-0196
国际标识:
2021-031J
轨道中心:
EARTH
卫星名称:
一网星座-0196星
卫星全名:
一网星座-0196星 (ONEWEB-0196 )
卫星状态:
在轨 (已飞行1876 天)
发射日期:
2021-04-25 UTC
国别 :
英国 (GB)
星等 :
--
轨道信息
数据来源 国际轨道数据 AOE轨道数据
星历时间 2026-06-14T04:49:44+0800
13小时前
查看轨道信息
2026-06-11T06:00:00+0800
3天前
查看轨道信息
半长轴 7583.926km 7583.939km
偏心率 0.0001964 0.0002034
轨道倾角 87.896° 87.895°
近地点辐角 105.033° 109.635°
升交点赤经 290.368° 290.956°
平近点角 255.101° 332.738°
近地点 1204.299km 1204.259km
远地点 1207.279km 1207.345km
周期 109.547分钟 109.547分钟
每日圈数 13.145033 13.145
详细信息
平衡模式:
三轴稳定
覆盖范围:
全球
运营商:
一网卫星公司
运营商所在国:
英国
制造商(研发单位):
一网卫星公司
制造商所在国:
英国
使用方式:
暂无
卫星简介
OneWeb卫星网络由648颗重约125公斤的微型卫星组成,运行在1200公里的轨道上。 每颗卫星都能够提供至少每秒8千兆位的吞吐量,以使用其高吞吐量的Ku频段有效载荷为家庭和移动平台提供互联网接入。该卫星仍在工作。
2D轨道图
3D轨道图
轨道高度分析图
轨道倾角分析图
轨道综合分析图
查看轨道综合分析图